Location: Mohawk View
(42.7837°N, 73.7885°W)
Time: 10:46:23
(UTC+00:00)

IRS-1D - Pass Details

Date: 17 June 2021
Orbit: 739 x 817 km, 98.6° (Epoch: 27 July)

Event Time Altitude Azimuth Distance (km) Brightness Sun altitude
Rises 07:01:33 0° 17° (NNE) 3,286 8.3 -17.8°
Reaches altitude 10° 07:03:57 10° 22° (NNE) 2,341 7.3 -17.6°
Maximum altitude 07:09:01 58° 101° (E) 898 3.9 -17.1°
Enters shadow 07:12:21 21° 174° (S) 1,676 4.8 -16.8°
